This is the latest recevied weather packets stored in our database for station/object M0JUI-1. If no packets are shown the sender has not sent any weather packets the latest 10 day(s).
| Time | Temp. | Humidity | Pressure | Rain* | Wind** | Luminosity | Snow |
|---|---|---|---|---|---|---|---|
| 1778144931 | 8.89° C | 20% | 1016.1 hPa | 0 mm | - | 143 W/m² | - |
| 1778144631 | 8.89° C | 20% | 1016.3 hPa | 0 mm | - | 146 W/m² | - |
| 1778144331 | 8.89° C | 20% | 1016.2 hPa | 0 mm | - | 141 W/m² | - |
| 1778144019 | 8.89° C | 20% | 1016.5 hPa | 0 mm | - | 138 W/m² | - |
| 1778143720 | 8.89° C | 19% | 1016.3 hPa | 0 mm | - | 145 W/m² | - |
| 1778143419 | 8.89° C | 19% | 1016.4 hPa | 0 mm | - | 145 W/m² | - |
| 1778143119 | 8.89° C | 19% | 1016.5 hPa | 0 mm | - | 156 W/m² | - |
| 1778142820 | 8.89° C | 19% | 1016.3 hPa | 0 mm | - | 170 W/m² | - |
| 1778142520 | 8.89° C | 18% | 1016.3 hPa | 0 mm | - | 178 W/m² | - |
| 1778142219 | 8.33° C | 18% | 1016.3 hPa | 0 mm | - | 177 W/m² | - |
| 1778141907 | 8.33° C | 18% | 1016.5 hPa | 0 mm | - | 167 W/m² | - |
| 1778141607 | 8.33° C | 18% | 1016.2 hPa | 0 mm | - | 163 W/m² | - |
| 1778141307 | 8.33° C | 18% | 1016.5 hPa | 0 mm | - | 160 W/m² | - |
| 1778141007 | 7.78° C | 17% | 1016.3 hPa | 0 mm | - | 164 W/m² | - |
| 1778140708 | 7.78° C | 17% | 1016.3 hPa | 0 mm | - | 169 W/m² | - |
| 1778140408 | 7.78° C | 17% | 1016.2 hPa | 0 mm | - | 166 W/m² | - |
| 1778140107 | 7.78° C | 16% | 1016.1 hPa | 0 mm | - | 160 W/m² | - |
| 1778139807 | 7.78° C | 14% | 1016.4 hPa | 0 mm | - | 152 W/m² | - |
| 1778139507 | 7.78° C | 14% | 1016.3 hPa | 0 mm | - | 135 W/m² | - |
| 1778139208 | 7.22° C | 13% | 1016.3 hPa | 0 mm | - | 121 W/m² | - |
| 1778138907 | 7.22° C | 11% | 1016.3 hPa | 0 mm | - | 118 W/m² | - |
| 1778138608 | 7.22° C | 11% | 1016.2 hPa | 0 mm | - | 124 W/m² | - |
| 1778138308 | 7.22° C | 10% | 1016.4 hPa | 0 mm | - | 130 W/m² | - |
| 1778138008 | 6.67° C | 7% | 1016.2 hPa | 0 mm | - | 127 W/m² | - |
| 1778137708 | 6.67° C | 8% | 1016.1 hPa | 0 mm | - | 117 W/m² | - |
* Rain latest hour (hover to see other rain measurements)
** Current wind speed in m/s (hover to see current wind gust speed)